"Pseudo-MPEC" for P110e39

Created 2020 May 27 21:07:14 UT using Find_Orb

Click here for an explanation of pseudo-MPECs

 
 Astrometry: 
     P110e39  C2020 05 15XWnE:C5f`Astrometryc[)Hj:)]f`Oyk8-fredacted;A;W,s5s)F51
     P110e39  C2020 05 15w.o]KQfMAZOJq+7W4jHLxiGmFS@5.clickm?+U4C?c.`hereD]e;F51
     P110e39  C2020 05 15CVMWFu*xQE?_forfTm3MxibAI[_Wv)oax8qexplanationKoq!SpF51

Station data:
(F51) Pan-STARRS 1, Haleakala  (N20.707235 W156.255910)  US/Hawaii.
   Observers N. Primak, A. Schultz, S. Watters, J. Thiel, T. Goggia. Measurer
   PS1 Science Consortium. 1.8-m Ritchey-Chrétien + CCD.

Orbital elements:  P110e39
   Perihelion 2021 Jun 27.611769 +/- 224 TT = 14:40:56 (JD 2459393.111769)
Epoch 2020 May 15.0 TT = JDT 2458984.5   Earth MOID: 0.5620   Ma: 0.0496
M 186.42021651 +/- 140              (J2000 ecliptic)          AutoNEOCP
n   0.42480368 +/- 0.274            Peri.  155.83908 +/- 80
a   1.75257737 +/- 0.753            Node   244.65972 +/- 50
e   0.1208880 +/- 0.272             Incl.   20.19627 +/- 28
P   2.32/847.43d           H 20.2   G  0.15   U 11.9  SR
q 1.54071176 +/- 0.845    Q 1.96444299 +/- 34.7
From 3 observations 2020 May 15 (30.0 min); mean residual 0".02
Residuals in arcseconds: 
200515 F51  .02+  .01-    200515 F51  .03-  .02+    200515 F51  .02+  .01-    

Ephemerides (geocentric):
Date (UTC) HH   RA              Dec         delta   r     elong  mag " sig PA
---- -- -- --  -------------   -----------  ------ ------ -----  --- ---- ---
2020 05 27 21  13 56 31.805   -22 10 54.19  1.0323 1.9608 146.9 22.7  17d 153
2020 05 27 22  13 56 30.560   -22 10 04.91  1.0326 1.9608 146.8 22.7  17d 153
2020 05 27 23  13 56 29.318   -22 09 15.66  1.0328 1.9608 146.8 22.7  17d 152
2020 05 28 00  13 56 28.081   -22 08 26.43  1.0330 1.9608 146.7 22.7  17d 152
2020 05 28 01  13 56 26.847   -22 07 37.22  1.0332 1.9608 146.7 22.7  17d 151
2020 05 28 02  13 56 25.618   -22 06 48.04  1.0334 1.9608 146.6 22.7  17d 151
2020 05 28 03  13 56 24.394   -22 05 58.89  1.0337 1.9608 146.6 22.7  18d 150
2020 05 28 04  13 56 23.173   -22 05 09.76  1.0339 1.9607 146.6 22.7  18d 150
2020 05 28 05  13 56 21.956   -22 04 20.65  1.0341 1.9607 146.5 22.7  18d 149
2020 05 28 06  13 56 20.744   -22 03 31.58  1.0343 1.9607 146.5 22.7  18d 149
2020 05 28 07  13 56 19.536   -22 02 42.52  1.0345 1.9607 146.4 22.7  18d 148
2020 05 28 08  13 56 18.332   -22 01 53.50  1.0347 1.9607 146.4 22.7  18d 147
2020 05 28 09  13 56 17.132   -22 01 04.49  1.0350 1.9607 146.3 22.7  18d 146
2020 05 28 10  13 56 15.937   -22 00 15.52  1.0352 1.9607 146.3 22.7  18d 146
2020 05 28 11  13 56 14.745   -21 59 26.57  1.0354 1.9607 146.2 22.7  18d 145
2020 05 28 12  13 56 13.558   -21 58 37.64  1.0356 1.9607 146.2 22.7  18d 144
2020 05 28 13  13 56 12.375   -21 57 48.74  1.0359 1.9606 146.2 22.7  18d 143
2020 05 28 14  13 56 11.196   -21 56 59.87  1.0361 1.9606 146.1 22.7  18d 143
2020 05 28 15  13 56 10.022   -21 56 11.02  1.0363 1.9606 146.1 22.7  18d 142
2020 05 28 16  13 56 08.851   -21 55 22.20  1.0365 1.9606 146.0 22.7  18d 141
2020 05 28 17  13 56 07.685   -21 54 33.41  1.0367 1.9606 146.0 22.7  19d 141
2020 05 28 18  13 56 06.523   -21 53 44.64  1.0370 1.9606 145.9 22.7  19d 141
2020 05 28 19  13 56 05.365   -21 52 55.90  1.0372 1.9606 145.9 22.7  19d 141
2020 05 28 20  13 56 04.211   -21 52 07.18  1.0374 1.9606 145.8 22.7  19d 143
2020 05 28 21  13 56 03.061   -21 51 18.49  1.0376 1.9606 145.8 22.7  20d 146
2020 05 28 22  13 56 01.916   -21 50 29.83  1.0379 1.9605 145.8 22.7  20d 151
2020 05 28 23  13 56 00.775   -21 49 41.19  1.0381 1.9605 145.7 22.7  22d 157
2020 05 29 00  13 55 59.638   -21 48 52.58  1.0383 1.9605 145.7 22.7  23d 161
2020 05 29 01  13 55 58.505   -21 48 04.00  1.0385 1.9605 145.6 22.7  24d 164
2020 05 29 02  13 55 57.377   -21 47 15.44  1.0388 1.9605 145.6 22.7  25d 166
2020 05 29 03  13 55 56.252   -21 46 26.91  1.0390 1.9605 145.5 22.7  25d 167
2020 05 29 04  13 55 55.132   -21 45 38.40  1.0392 1.9605 145.5 22.7  26d 168
2020 05 29 05  13 55 54.016   -21 44 49.93  1.0395 1.9605 145.4 22.7  26d 169
2020 05 29 06  13 55 52.904   -21 44 01.48  1.0397 1.9605 145.4 22.7  27d 169
2020 05 29 07  13 55 51.796   -21 43 13.05  1.0399 1.9604 145.4 22.7  27d 169
2020 05 29 08  13 55 50.693   -21 42 24.66  1.0401 1.9604 145.3 22.7  27d 170
2020 05 29 09  13 55 49.594   -21 41 36.29  1.0404 1.9604 145.3 22.7  27d 170
2020 05 29 10  13 55 48.499   -21 40 47.95  1.0406 1.9604 145.2 22.7  27d 170
2020 05 29 11  13 55 47.408   -21 39 59.63  1.0408 1.9604 145.2 22.7  27d 170
2020 05 29 12  13 55 46.321   -21 39 11.35  1.0411 1.9604 145.1 22.7  28d 171
2020 05 29 13  13 55 45.238   -21 38 23.09  1.0413 1.9604 145.1 22.7  28d 171
2020 05 29 14  13 55 44.160   -21 37 34.86  1.0415 1.9604 145.0 22.7  28d 171
2020 05 29 15  13 55 43.086   -21 36 46.65  1.0417 1.9604 145.0 22.7  28d 171
2020 05 29 16  13 55 42.016   -21 35 58.47  1.0420 1.9603 145.0 22.7  28d 171
2020 05 29 17  13 55 40.950   -21 35 10.32  1.0422 1.9603 144.9 22.7  28d 171
2020 05 29 18  13 55 39.888   -21 34 22.20  1.0424 1.9603 144.9 22.7  28d 171
2020 05 29 19  13 55 38.831   -21 33 34.11  1.0427 1.9603 144.8 22.7  28d 171
2020 05 29 20  13 55 37.778   -21 32 46.04  1.0429 1.9603 144.8 22.7  28d 171